Weather in Infanta

Philippines     14°44′41″N   121°38′53″E
temp.,
°C
wind,
m/s
gust,
m/s
humid.,
%
clouds,
%
prec.,
mm/h
press.,
hPa
HPBL,
m
24 july, sat
sat2423:00+29sw91276100 0.0 1003858
02:00+28sw91477100 0.0 10021162
05:00+29sw91577100 0.0 10021241
08:00+29sw101678100 0.1 10031205
11:00+29sw101576100 0.0 10031143
14:00+29sw101576100 0.0 10031257
17:00+29sw101676100 0.0 10031342
20:00+29sw91477100 0.1 10051278
25 july, sun
sun2523:00+28sw81478100 0.1 10061242
02:00+28sw91479100 0.2 10041193
05:00+28sw81478100 0.1 10041223
08:00+29sw9157792 0.1 10061272
11:00+29wsw91477100 0.1 10051246
14:00+29wsw91475100 0.1 10041216
17:00+29wsw81475100 0.0 10041175
20:00+29wsw91375100 0.0 10051099
26 july, mon
mon2623:00+29sw81178100 0.1 1006975
02:00+29sw81276100 0.2 10031101
05:00+29sw8127799 0.1 1003982
08:00+29sw8127684 0.1 1003920
11:00+30sw91275100 0.0 1003796
14:00+30wsw8137393 0.0 1002943
17:00+29wsw8137494 0.0 1001953
20:00+29sw71177100 0.0 1002923
27 july, tue
tue2723:00+29sw81378100 0.1 10031171
02:00+29sw81377100 0.2 10011191
05:00+29sw9157773 0.1 10011308
08:00+29sw91576100 0.2 10031343
11:00+30sw1116746 0.1 10031209
14:00+30wsw11167231 0.1 10011122
17:00+29sw91577100 0.1 10011257
20:00+29sw91478100 0.2 10031246
28 july, wed
wed2823:00+29sw91478100 0.0 10041137
02:00+28sw91478100 0.6 1002953
05:00+29sw81377100 0.1 10021019
08:00+29sw81378100 0.1 10041200
11:00+29sw81276100 0.1 10041089
14:00+30wsw91475100 0.1 1003996
17:00+30sw81374100 0.0 1003983
20:00+29sw81375100 0.0 1005965